Time,TemperatureF,DewpointF,PressureIn,WindDirection,WindDirectionDegrees,WindSpeedMPH,WindSpeedGustMPH,Humidity,HourlyPrecipIn,Conditions,Clouds,dailyrainin,SoftwareType,DateUTC
2013-01-13 00:01:00,57.2,52.6,28.85,South,180,0.0,0.0,84,0.00,,,0.00,WSDL version 420,2013-01-13 05:01:00,
2013-01-13 00:03:00,57.2,52.6,28.85,ENE,72,0.0,0.0,84,0.00,,,0.00,WSDL version 420,2013-01-13 05:03:00,
2013-01-13 00:09:00,57.3,52.6,28.85,South,180,2.0,3.1,84,0.00,,,0.00,WSDL version 420,2013-01-13 05:09:00,
2013-01-13 00:13:00,57.3,52.6,28.85,South,180,0.0,3.1,84,0.00,,,0.00,WSDL version 420,2013-01-13 05:13:00,
2013-01-13 00:15:00,57.3,52.7,28.85,SSE,153,1.3,3.1,84,0.00,,,0.00,WSDL version 420,2013-01-13 05:15:00,
2013-01-13 00:21:00,57.3,52.6,28.85,West,270,0.0,3.1,84,0.00,,,0.00,WSDL version 420,2013-01-13 05:21:00,
2013-01-13 00:23:00,57.3,52.6,28.85,SSW,203,0.0,3.1,84,0.00,,,0.00,WSDL version 420,2013-01-13 05:23:00,
2013-01-13 00:29:00,57.5,52.8,28.85,ENE,68,0.0,0.0,84,0.00,,,0.00,WSDL version 420,2013-01-13 05:29:00,
2013-01-13 00:31:00,57.5,52.9,28.85,ENE,68,0.0,0.0,84,0.00,,,0.00,WSDL version 420,2013-01-13 05:31:00,
2013-01-13 00:33:00,57.5,52.9,28.85,ENE,68,0.0,0.0,84,0.00,,,0.00,WSDL version 420,2013-01-13 05:33:00,
2013-01-13 00:37:00,57.4,52.7,28.85,SE,135,0.0,0.0,84,0.00,,,0.00,WSDL version 420,2013-01-13 05:37:00,
2013-01-13 00:41:00,57.5,52.9,28.85,ESE,113,0.0,0.0,84,0.00,,,0.00,WSDL version 420,2013-01-13 05:41:00,
2013-01-13 00:47:00,57.3,52.7,28.85,ESE,113,1.2,2.5,84,0.00,,,0.00,WSDL version 420,2013-01-13 05:47:00,
2013-01-13 00:51:00,57.2,52.6,28.85,South,184,0.0,2.5,84,0.00,,,0.00,WSDL version 420,2013-01-13 05:51:00,
2013-01-13 00:53:00,57.2,52.6,28.85,North,0,0.0,2.5,84,0.00,,,0.00,WSDL version 420,2013-01-13 05:53:00,
2013-01-13 00:55:00,57.2,52.6,28.85,South,169,0.0,2.2,84,0.00,,,0.00,WSDL version 420,2013-01-13 05:55:00,
2013-01-13 00:57:00,57.2,52.6,28.85,West,279,0.0,0.0,84,0.00,,,0.00,WSDL version 420,2013-01-13 05:57:00,
2013-01-13 01:03:00,57.3,52.6,28.85,West,275,0.0,0.0,84,0.00,,,0.00,WSDL version 420,2013-01-13 06:03:00,
2013-01-13 01:09:00,57.4,52.7,28.85,South,191,0.0,0.0,84,0.00,,,0.00,WSDL version 420,2013-01-13 06:09:00,
2013-01-13 01:11:00,57.4,52.7,28.85,ESE,104,0.0,0.0,84,0.00,,,0.00,WSDL version 420,2013-01-13 06:11:00,
2013-01-13 01:13:00,57.4,52.7,28.85,South,169,0.4,0.0,84,0.00,,,0.00,WSDL version 420,2013-01-13 06:13:00,
2013-01-13 01:17:00,57.5,52.9,28.85,SW,225,0.0,0.0,84,0.00,,,0.00,WSDL version 420,2013-01-13 06:17:00,
2013-01-13 01:19:00,57.4,52.8,28.85,SW,225,0.0,0.0,84,0.00,,,0.00,WSDL version 420,2013-01-13 06:19:00,
2013-01-13 01:21:00,57.4,52.7,28.85,SW,225,0.0,0.0,84,0.00,,,0.00,WSDL version 420,2013-01-13 06:21:00,
2013-01-13 01:23:00,57.5,52.8,28.85,North,0,0.0,0.0,84,0.00,,,0.00,WSDL version 420,2013-01-13 06:23:00,
2013-01-13 01:25:00,57.5,52.9,28.85,SW,225,0.0,0.0,84,0.00,,,0.00,WSDL version 420,2013-01-13 06:25:00,
2013-01-13 01:27:00,57.6,52.9,28.85,SW,225,0.0,0.0,84,0.00,,,0.00,WSDL version 420,2013-01-13 06:27:00,
2013-01-13 01:29:00,57.6,52.9,28.85,SSW,206,0.0,0.0,84,0.00,,,0.00,WSDL version 420,2013-01-13 06:29:00,
2013-01-13 01:33:00,57.4,52.8,28.85,NE,45,0.0,0.0,84,0.00,,,0.00,WSDL version 420,2013-01-13 06:33:00,
2013-01-13 01:35:00,57.4,52.7,28.85,NE,45,0.0,0.0,84,0.00,,,0.00,WSDL version 420,2013-01-13 06:35:00,
2013-01-13 01:37:00,57.4,52.7,28.85,NE,45,0.0,0.0,84,0.00,,,0.00,WSDL version 420,2013-01-13 06:37:00,
2013-01-13 01:39:00,57.4,52.7,28.85,NE,45,0.0,0.0,84,0.00,,,0.00,WSDL version 420,2013-01-13 06:39:00,
2013-01-13 01:41:00,57.4,52.7,28.85,SE,124,0.0,0.0,84,0.00,,,0.00,WSDL version 420,2013-01-13 06:41:00,
2013-01-13 01:45:00,57.2,52.6,28.85,North,-999,-999.0,-999.0,84,0.00,,,0.00,WSDL version 420,2013-01-13 06:45:00,
2013-01-13 01:49:00,57.2,52.6,28.85,North,349,0.6,2.5,84,0.00,,,0.00,WSDL version 420,2013-01-13 06:49:00,
2013-01-13 01:55:00,57.1,52.5,28.85,ENE,68,0.0,2.7,84,0.00,,,0.00,WSDL version 420,2013-01-13 06:55:00,
2013-01-13 01:57:00,57.1,52.5,28.85,SE,135,0.0,2.7,84,0.00,,,0.00,WSDL version 420,2013-01-13 06:57:00,
2013-01-13 01:59:00,57.2,52.6,28.85,SSW,207,0.0,2.7,84,0.00,,,0.00,WSDL version 420,2013-01-13 06:59:00,
2013-01-13 02:03:00,57.1,52.4,28.85,ESE,105,0.0,0.0,84,0.00,,,0.00,WSDL version 420,2013-01-13 07:03:00,
2013-01-13 02:05:00,57.0,52.4,28.85,South,180,0.8,2.5,84,0.00,,,0.00,WSDL version 420,2013-01-13 07:05:00,
2013-01-13 02:09:00,57.0,52.4,28.85,North,349,0.4,2.5,84,0.00,,,0.00,WSDL version 420,2013-01-13 07:09:00,
2013-01-13 02:15:00,56.8,52.2,28.85,SE,129,0.0,2.0,84,0.00,,,0.00,WSDL version 420,2013-01-13 07:15:00,
2013-01-13 02:17:00,56.9,52.3,28.85,NW,315,0.0,2.0,84,0.00,,,0.00,WSDL version 420,2013-01-13 07:17:00,
2013-01-13 02:23:00,56.8,52.2,28.85,SSW,203,0.0,0.0,84,0.00,,,0.00,WSDL version 420,2013-01-13 07:23:00,
2013-01-13 02:25:00,56.8,52.2,28.85,ESE,113,0.0,0.0,84,0.00,,,0.00,WSDL version 420,2013-01-13 07:25:00,
2013-01-13 02:29:00,57.0,52.3,28.85,NW,321,0.0,0.0,84,0.00,,,0.00,WSDL version 420,2013-01-13 07:29:00,
2013-01-13 02:31:00,57.0,52.3,28.85,West,270,0.0,0.0,84,0.00,,,0.00,WSDL version 420,2013-01-13 07:31:00,
2013-01-13 02:33:00,57.0,52.3,28.85,North,360,0.0,0.0,84,0.00,,,0.00,WSDL version 420,2013-01-13 07:33:00,
2013-01-13 02:37:00,56.8,52.2,28.85,South,188,0.8,1.3,84,0.00,,,0.00,WSDL version 420,2013-01-13 07:37:00,
2013-01-13 02:39:00,56.8,52.1,28.85,SSW,195,0.9,1.3,84,0.00,,,0.00,WSDL version 420,2013-01-13 07:39:00,
2013-01-13 02:41:00,56.7,52.1,28.85,SE,141,0.3,2.2,84,0.00,,,0.00,WSDL version 420,2013-01-13 07:41:00,
2013-01-13 02:43:00,56.7,52.0,28.85,NNE,23,0.0,2.2,84,0.00,,,0.00,WSDL version 420,2013-01-13 07:43:00,
2013-01-13 02:49:00,56.5,51.9,28.85,NNW,345,0.0,2.2,84,0.00,,,0.00,WSDL version 420,2013-01-13 07:49:00,
2013-01-13 02:53:00,56.3,51.7,28.85,SE,146,1.6,1.6,84,0.00,,,0.00,WSDL version 420,2013-01-13 07:53:00,
2013-01-13 02:57:00,56.3,51.7,28.85,WNW,293,0.0,2.0,84,0.00,,,0.00,WSDL version 420,2013-01-13 07:57:00,
2013-01-13 03:01:00,56.3,51.7,28.85,SW,225,0.0,2.0,84,0.00,,,0.00,WSDL version 420,2013-01-13 08:01:00,
2013-01-13 03:03:00,56.4,51.8,28.85,North,-999,-999.0,-999.0,84,0.00,,,0.00,WSDL version 420,2013-01-13 08:03:00,
2013-01-13 03:05:00,56.5,51.8,28.85,South,180,0.0,0.0,84,0.00,,,0.00,WSDL version 420,2013-01-13 08:05:00,
2013-01-13 03:09:00,56.3,51.7,28.85,SSE,158,0.9,2.7,84,0.00,,,0.00,WSDL version 420,2013-01-13 08:09:00,
2013-01-13 03:13:00,56.3,51.7,28.82,South,180,0.0,2.7,84,0.00,,,0.00,WSDL version 420,2013-01-13 08:13:00,
2013-01-13 03:15:00,56.3,51.7,28.82,South,180,0.0,2.7,84,0.00,,,0.00,WSDL version 420,2013-01-13 08:15:00,
2013-01-13 03:17:00,56.3,51.7,28.82,South,180,0.0,0.0,84,0.00,,,0.00,WSDL version 420,2013-01-13 08:17:00,
2013-01-13 03:23:00,56.3,51.7,28.82,South,180,2.0,2.0,84,0.00,,,0.00,WSDL version 420,2013-01-13 08:23:00,
2013-01-13 03:27:00,56.4,51.8,28.85,South,180,0.0,2.5,84,0.00,,,0.00,WSDL version 420,2013-01-13 08:27:00,
2013-01-13 03:29:00,56.5,51.8,28.85,East,101,1.6,2.9,84,0.00,,,0.00,WSDL version 420,2013-01-13 08:29:00,
2013-01-13 03:31:00,56.4,51.8,28.85,NNE,23,0.0,2.9,84,0.00,,,0.00,WSDL version 420,2013-01-13 08:31:00,
2013-01-13 03:33:00,56.4,51.7,28.85,SSW,197,0.0,2.9,84,0.00,,,0.00,WSDL version 420,2013-01-13 08:33:00,
2013-01-13 03:35:00,56.3,51.7,28.85,NE,45,0.0,2.9,84,0.00,,,0.00,WSDL version 420,2013-01-13 08:35:00,
2013-01-13 03:37:00,56.3,51.7,28.85,SE,124,0.0,2.9,84,0.00,,,0.00,WSDL version 420,2013-01-13 08:37:00,
2013-01-13 03:39:00,56.3,51.7,28.85,NW,304,0.0,2.7,84,0.00,,,0.00,WSDL version 420,2013-01-13 08:39:00,
2013-01-13 03:43:00,56.5,51.9,28.82,SE,132,0.0,2.2,84,0.00,,,0.00,WSDL version 420,2013-01-13 08:43:00,
2013-01-13 03:45:00,56.5,51.9,28.82,NE,34,0.0,2.2,84,0.00,,,0.00,WSDL version 420,2013-01-13 08:45:00,
2013-01-13 03:49:00,56.5,51.8,28.82,SSW,195,0.4,2.7,84,0.00,,,0.00,WSDL version 420,2013-01-13 08:49:00,
2013-01-13 03:51:00,56.5,51.8,28.82,South,180,1.3,2.7,84,0.00,,,0.00,WSDL version 420,2013-01-13 08:51:00,
2013-01-13 03:53:00,56.5,51.9,28.82,South,180,0.0,2.7,84,0.00,,,0.00,WSDL version 420,2013-01-13 08:53:00,
2013-01-13 03:55:00,56.5,51.9,28.85,SE,124,0.0,2.7,84,0.00,,,0.00,WSDL version 420,2013-01-13 08:55:00,
2013-01-13 03:59:00,56.6,52.0,28.85,South,180,0.0,2.7,84,0.00,,,0.00,WSDL version 420,2013-01-13 08:59:00,
2013-01-13 04:01:00,56.7,52.0,28.85,South,180,0.0,0.0,84,0.00,,,0.00,WSDL version 420,2013-01-13 09:01:00,
2013-01-13 04:03:00,56.7,52.1,28.85,SSE,152,0.0,0.0,84,0.00,,,0.00,WSDL version 420,2013-01-13 09:03:00,
2013-01-13 04:05:00,56.8,52.2,28.85,SW,218,0.0,0.0,84,0.00,,,0.00,WSDL version 420,2013-01-13 09:05:00,
2013-01-13 04:09:00,57.0,52.3,28.85,South,180,1.1,0.0,84,0.00,,,0.00,WSDL version 420,2013-01-13 09:09:00,
2013-01-13 04:11:00,56.9,52.3,28.82,North,-999,-999.0,-999.0,84,0.00,,,0.00,WSDL version 420,2013-01-13 09:11:00,
2013-01-13 04:13:00,56.8,52.2,28.82,NNW,338,0.0,0.0,84,0.00,,,0.00,WSDL version 420,2013-01-13 09:13:00,
2013-01-13 04:17:00,56.8,52.2,28.82,NNW,338,0.0,0.0,84,0.00,,,0.00,WSDL version 420,2013-01-13 09:17:00,
2013-01-13 04:19:00,56.8,52.2,28.82,NNW,338,0.0,0.0,84,0.00,,,0.00,WSDL version 420,2013-01-13 09:19:00,
2013-01-13 04:21:00,56.8,52.2,28.82,NNW,338,0.0,0.0,84,0.00,,,0.00,WSDL version 420,2013-01-13 09:21:00,
2013-01-13 04:25:00,57.0,52.4,28.82,NNW,338,0.0,0.0,84,0.00,,,0.00,WSDL version 420,2013-01-13 09:25:00,
2013-01-13 04:27:00,57.1,52.4,28.82,NNW,338,0.0,0.0,84,0.00,,,0.00,WSDL version 420,2013-01-13 09:27:00,
2013-01-13 04:29:00,57.1,52.5,28.82,NNW,338,0.0,0.0,84,0.00,,,0.00,WSDL version 420,2013-01-13 09:29:00,
2013-01-13 04:31:00,57.2,52.6,28.82,NNW,338,0.0,0.0,84,0.00,,,0.00,WSDL version 420,2013-01-13 09:31:00,
2013-01-13 04:37:00,57.2,52.6,28.82,NE,55,0.0,0.0,84,0.00,,,0.00,WSDL version 420,2013-01-13 09:37:00,
2013-01-13 04:39:00,57.3,52.6,28.82,SSE,158,0.0,0.0,84,0.00,,,0.00,WSDL version 420,2013-01-13 09:39:00,
2013-01-13 04:41:00,57.4,52.7,28.82,SSE,158,0.0,0.0,84,0.00,,,0.00,WSDL version 420,2013-01-13 09:41:00,
2013-01-13 04:43:00,57.4,52.7,28.82,North,0,0.0,0.0,84,0.00,,,0.00,WSDL version 420,2013-01-13 09:43:00,
2013-01-13 04:45:00,57.4,52.7,28.82,North,-999,-999.0,-999.0,84,0.00,,,0.00,WSDL version 420,2013-01-13 09:45:00,
2013-01-13 04:49:00,57.2,52.6,28.82,North,-999,-999.0,-999.0,84,0.00,,,0.00,WSDL version 420,2013-01-13 09:49:00,
2013-01-13 04:51:00,57.3,52.6,28.82,South,180,0.0,0.0,84,0.00,,,0.00,WSDL version 420,2013-01-13 09:51:00,
2013-01-13 04:55:00,57.3,52.6,28.82,North,360,0.0,0.0,84,0.00,,,0.00,WSDL version 420,2013-01-13 09:55:00,
2013-01-13 04:57:00,57.2,52.6,28.82,North,360,0.0,0.0,84,0.00,,,0.00,WSDL version 420,2013-01-13 09:57:00,
2013-01-13 04:59:00,57.2,52.6,28.82,North,360,0.0,0.0,84,0.00,,,0.00,WSDL version 420,2013-01-13 09:59:00,
2013-01-13 05:03:00,57.2,52.6,28.82,North,360,0.0,0.0,84,0.00,,,0.00,WSDL version 420,2013-01-13 10:03:00,
2013-01-13 05:07:00,57.2,52.6,28.82,SW,236,0.0,0.0,84,0.00,,,0.00,WSDL version 420,2013-01-13 10:07:00,
2013-01-13 05:11:00,57.3,52.6,28.82,South,180,0.0,0.0,84,0.00,,,0.00,WSDL version 420,2013-01-13 10:11:00,
2013-01-13 05:13:00,57.4,52.8,28.82,South,180,0.0,2.7,84,0.00,,,0.00,WSDL version 420,2013-01-13 10:13:00,
2013-01-13 05:19:00,57.5,52.9,28.82,South,180,0.0,2.7,84,0.00,,,0.00,WSDL version 420,2013-01-13 10:19:00,
2013-01-13 05:25:00,57.4,52.8,28.82,North,-999,-999.0,-999.0,84,0.00,,,0.00,WSDL version 420,2013-01-13 10:25:00,
2013-01-13 05:27:00,57.5,52.9,28.82,NNE,23,0.0,2.2,84,0.00,,,0.00,WSDL version 420,2013-01-13 10:27:00,
2013-01-13 05:29:00,57.6,52.9,28.82,North,-999,-999.0,-999.0,84,0.00,,,0.00,WSDL version 420,2013-01-13 10:29:00,
2013-01-13 05:35:00,57.5,52.9,28.82,North,-999,-999.0,-999.0,84,0.00,,,0.00,WSDL version 420,2013-01-13 10:35:00,
2013-01-13 05:37:00,57.5,52.9,28.82,NNE,23,0.0,0.0,84,0.00,,,0.00,WSDL version 420,2013-01-13 10:37:00,
2013-01-13 05:41:00,57.4,52.7,28.82,South,180,0.0,0.0,84,0.00,,,0.00,WSDL version 420,2013-01-13 10:41:00,
2013-01-13 05:43:00,57.4,52.8,28.82,SSE,150,0.0,0.0,84,0.00,,,0.00,WSDL version 420,2013-01-13 10:43:00,
2013-01-13 05:45:00,57.5,52.8,28.82,NNE,23,0.0,0.0,84,0.00,,,0.00,WSDL version 420,2013-01-13 10:45:00,
2013-01-13 05:49:00,57.5,52.8,28.82,SSW,203,0.0,0.0,84,0.00,,,0.00,WSDL version 420,2013-01-13 10:49:00,
2013-01-13 05:55:00,57.8,53.1,28.82,SSW,203,0.0,0.0,84,0.00,,,0.00,WSDL version 420,2013-01-13 10:55:00,
2013-01-13 05:59:00,57.9,53.2,28.82,SSW,203,0.0,0.0,84,0.00,,,0.00,WSDL version 420,2013-01-13 10:59:00,
2013-01-13 06:01:00,57.9,53.2,28.82,SSW,203,0.0,0.0,84,0.00,,,0.00,WSDL version 420,2013-01-13 11:01:00,
2013-01-13 06:05:00,57.9,53.2,28.82,SSW,203,0.0,0.0,84,0.00,,,0.00,WSDL version 420,2013-01-13 11:05:00,
2013-01-13 06:11:00,57.8,53.2,28.82,South,180,0.0,0.0,84,0.00,,,0.00,WSDL version 420,2013-01-13 11:11:00,
2013-01-13 06:13:00,57.8,53.1,28.82,South,180,0.0,0.0,84,0.00,,,0.00,WSDL version 420,2013-01-13 11:13:00,
2013-01-13 06:15:00,57.7,53.1,28.82,South,180,0.0,0.0,84,0.00,,,0.00,WSDL version 420,2013-01-13 11:15:00,
2013-01-13 06:19:00,57.6,53.0,28.82,South,180,0.0,0.0,84,0.00,,,0.00,WSDL version 420,2013-01-13 11:19:00,
2013-01-13 06:21:00,57.6,52.9,28.82,East,90,0.0,0.0,84,0.00,,,0.00,WSDL version 420,2013-01-13 11:21:00,
2013-01-13 06:25:00,57.6,53.0,28.82,West,270,0.0,0.0,84,0.00,,,0.00,WSDL version 420,2013-01-13 11:25:00,
2013-01-13 06:27:00,57.6,52.9,28.82,WNW,293,0.0,0.0,84,0.00,,,0.00,WSDL version 420,2013-01-13 11:27:00,
2013-01-13 06:29:00,57.6,53.0,28.82,NNW,338,0.0,2.0,84,0.00,,,0.00,WSDL version 420,2013-01-13 11:29:00,
2013-01-13 06:33:00,57.7,53.1,28.82,SSE,150,0.0,2.0,84,0.00,,,0.00,WSDL version 420,2013-01-13 11:33:00,
2013-01-13 06:35:00,57.8,53.1,28.82,North,-999,-999.0,-999.0,84,0.00,,,0.00,WSDL version 420,2013-01-13 11:35:00,
2013-01-13 06:37:00,57.9,53.2,28.82,North,360,0.0,2.0,84,0.00,,,0.00,WSDL version 420,2013-01-13 11:37:00,
2013-01-13 06:39:00,58.0,53.3,28.82,North,360,0.0,0.0,84,0.00,,,0.00,WSDL version 420,2013-01-13 11:39:00,
2013-01-13 06:45:00,57.8,53.1,28.82,North,360,0.0,0.0,84,0.00,,,0.00,WSDL version 420,2013-01-13 11:45:00,
2013-01-13 06:47:00,57.8,53.2,28.82,North,360,0.0,0.0,84,0.00,,,0.00,WSDL version 420,2013-01-13 11:47:00,
2013-01-13 06:51:00,57.9,53.3,28.82,North,360,0.0,0.0,84,0.00,,,0.00,WSDL version 420,2013-01-13 11:51:00,
2013-01-13 06:57:00,58.0,53.4,28.85,West,270,0.0,0.0,84,0.00,,,0.00,WSDL version 420,2013-01-13 11:57:00,
2013-01-13 07:03:00,58.3,53.6,28.85,NE,45,0.0,0.0,84,0.00,,,0.00,WSDL version 420,2013-01-13 12:03:00,
2013-01-13 07:05:00,58.2,53.6,28.85,NE,45,0.0,0.0,84,0.00,,,0.00,WSDL version 420,2013-01-13 12:05:00,
2013-01-13 07:09:00,58.1,53.4,28.85,North,360,0.0,0.0,84,0.00,,,0.00,WSDL version 420,2013-01-13 12:09:00,
2013-01-13 07:15:00,58.0,53.4,28.85,NE,53,1.6,2.0,84,0.00,,,0.00,WSDL version 420,2013-01-13 12:15:00,
2013-01-13 07:21:00,58.0,53.3,28.85,NNE,23,0.3,2.2,84,0.00,,,0.00,WSDL version 420,2013-01-13 12:21:00,
2013-01-13 07:23:00,58.2,53.6,28.85,North,8,2.1,3.1,84,0.00,,,0.00,WSDL version 420,2013-01-13 12:23:00,
2013-01-13 07:27:00,58.4,53.8,28.85,South,180,0.0,3.1,84,0.00,,,0.00,WSDL version 420,2013-01-13 12:27:00,
2013-01-13 07:29:00,58.4,53.7,28.85,North,-999,-999.0,-999.0,84,0.00,,,0.00,WSDL version 420,2013-01-13 12:29:00,
2013-01-13 07:31:00,58.3,53.6,28.85,North,360,1.3,3.1,84,0.00,,,0.00,WSDL version 420,2013-01-13 12:31:00,
2013-01-13 07:37:00,58.3,53.6,28.85,North,353,0.7,2.9,84,0.00,,,0.00,WSDL version 420,2013-01-13 12:37:00,
2013-01-13 07:39:00,58.4,53.7,28.85,NNE,23,2.2,2.9,84,0.00,,,0.00,WSDL version 420,2013-01-13 12:39:00,
2013-01-13 07:43:00,58.5,53.8,28.85,SSE,158,1.0,2.9,84,0.00,,,0.00,WSDL version 420,2013-01-13 12:43:00,
2013-01-13 07:45:00,58.4,53.7,28.85,SSW,203,0.0,2.9,84,0.00,,,0.00,WSDL version 420,2013-01-13 12:45:00,
2013-01-13 07:49:00,58.4,53.7,28.85,South,180,0.0,2.7,84,0.00,,,0.00,WSDL version 420,2013-01-13 12:49:00,
2013-01-13 07:53:00,58.5,53.9,28.85,North,0,0.0,2.5,84,0.00,,,0.00,WSDL version 420,2013-01-13 12:53:00,
2013-01-13 07:55:00,58.6,54.0,28.85,South,180,0.0,2.5,84,0.00,,,0.00,WSDL version 420,2013-01-13 12:55:00,
2013-01-13 07:57:00,58.8,54.1,28.85,NNE,30,0.0,2.5,84,0.00,,,0.00,WSDL version 420,2013-01-13 12:57:00,
2013-01-13 08:01:00,58.8,54.1,28.85,South,180,0.6,2.5,84,0.00,,,0.00,WSDL version 420,2013-01-13 13:01:00,
2013-01-13 08:07:00,58.9,54.1,28.85,South,180,0.0,2.5,83,0.00,,,0.00,WSDL version 420,2013-01-13 13:07:00,
2013-01-13 08:09:00,58.9,54.0,28.85,South,180,0.0,2.5,83,0.00,,,0.00,WSDL version 420,2013-01-13 13:09:00,
2013-01-13 08:13:00,59.0,54.0,28.85,South,180,0.0,0.0,83,0.00,,,0.00,WSDL version 420,2013-01-13 13:13:00,
2013-01-13 08:15:00,59.0,54.0,28.85,SSW,198,0.0,0.0,83,0.00,,,0.00,WSDL version 420,2013-01-13 13:15:00,
2013-01-13 08:19:00,59.0,54.0,28.85,NE,45,0.0,0.0,83,0.00,,,0.00,WSDL version 420,2013-01-13 13:19:00,
2013-01-13 08:21:00,59.0,54.0,28.85,South,169,0.0,0.0,83,0.00,,,0.00,WSDL version 420,2013-01-13 13:21:00,
2013-01-13 08:27:00,59.2,54.1,28.88,ENE,68,0.0,1.3,83,0.00,,,0.00,WSDL version 420,2013-01-13 13:27:00,
2013-01-13 08:33:00,59.2,54.2,28.88,West,270,1.3,1.6,83,0.00,,,0.00,WSDL version 420,2013-01-13 13:33:00,
2013-01-13 08:35:00,59.4,54.4,28.88,SSW,203,0.6,1.6,83,0.00,,,0.00,WSDL version 420,2013-01-13 13:35:00,
2013-01-13 08:37:00,59.7,54.6,28.88,SSW,207,2.0,2.2,83,0.00,,,0.00,WSDL version 420,2013-01-13 13:37:00,
2013-01-13 08:39:00,60.0,54.9,28.88,East,98,0.0,2.2,83,0.00,,,0.00,WSDL version 420,2013-01-13 13:39:00,
2013-01-13 08:41:00,60.3,55.3,28.88,South,180,1.3,2.2,83,0.00,,,0.00,WSDL version 420,2013-01-13 13:41:00,
2013-01-13 08:43:00,60.5,55.4,28.88,SSW,194,1.3,3.8,83,0.00,,,0.00,WSDL version 420,2013-01-13 13:43:00,
2013-01-13 08:47:00,60.9,55.7,28.88,SSW,203,0.0,3.8,82,0.00,,,0.00,WSDL version 420,2013-01-13 13:47:00,
2013-01-13 08:53:00,61.6,56.1,28.88,SE,135,3.8,5.8,82,0.00,,,0.00,WSDL version 420,2013-01-13 13:53:00,
2013-01-13 08:59:00,62.0,56.5,28.88,South,180,1.1,5.8,82,0.00,,,0.00,WSDL version 420,2013-01-13 13:59:00,
2013-01-13 09:03:00,62.4,56.9,28.88,SW,225,0.9,4.9,82,0.00,,,0.00,WSDL version 420,2013-01-13 14:03:00,
2013-01-13 09:05:00,62.5,57.0,28.88,SSW,203,0.9,4.9,82,0.00,,,0.00,WSDL version 420,2013-01-13 14:05:00,
2013-01-13 09:11:00,63.0,57.5,28.88,South,186,1.2,3.4,82,0.00,,,0.00,WSDL version 420,2013-01-13 14:11:00,
2013-01-13 09:13:00,63.1,57.6,28.88,WSW,242,2.6,4.0,82,0.00,,,0.00,WSDL version 420,2013-01-13 14:13:00,
2013-01-13 09:15:00,63.2,57.7,28.88,WSW,253,1.1,4.0,82,0.00,,,0.00,WSDL version 420,2013-01-13 14:15:00,
2013-01-13 09:21:00,63.5,58.0,28.88,SE,140,0.8,4.0,82,0.00,,,0.00,WSDL version 420,2013-01-13 14:21:00,
2013-01-13 09:23:00,63.5,58.0,28.88,SW,233,2.5,3.6,82,0.00,,,0.00,WSDL version 420,2013-01-13 14:23:00,
2013-01-13 09:29:00,63.8,58.3,28.88,South,180,0.8,3.6,82,0.00,,,0.00,WSDL version 420,2013-01-13 14:29:00,
2013-01-13 09:35:00,64.2,58.7,28.88,WSW,255,1.7,4.0,82,0.00,,,0.00,WSDL version 420,2013-01-13 14:35:00,
2013-01-13 09:39:00,64.4,58.9,28.88,SW,214,3.3,4.0,82,0.00,,,0.00,WSDL version 420,2013-01-13 14:39:00,
2013-01-13 09:41:00,64.5,59.0,28.88,SSW,203,3.4,4.3,82,0.00,,,0.00,WSDL version 420,2013-01-13 14:41:00,
2013-01-13 09:45:00,64.7,59.2,28.88,WSW,253,0.7,4.3,83,0.00,,,0.00,WSDL version 420,2013-01-13 14:45:00,
2013-01-13 09:49:00,65.0,59.8,28.88,South,173,2.5,4.3,83,0.00,,,0.00,WSDL version 420,2013-01-13 14:49:00,
2013-01-13 09:53:00,65.2,60.1,28.88,South,180,2.3,3.8,83,0.00,,,0.00,WSDL version 420,2013-01-13 14:53:00,
2013-01-13 09:57:00,65.4,60.2,28.88,South,180,3.0,4.3,83,0.00,,,0.00,WSDL version 420,2013-01-13 14:57:00,
2013-01-13 10:01:00,65.5,60.5,28.88,SW,225,1.5,4.3,84,0.00,,,0.00,WSDL version 420,2013-01-13 15:01:00,
2013-01-13 10:05:00,65.5,60.8,28.88,South,186,4.5,8.5,86,0.00,,,0.00,WSDL version 420,2013-01-13 15:05:00,
2013-01-13 10:11:00,65.6,61.6,28.88,SSW,203,3.2,8.5,88,0.00,,,0.00,WSDL version 420,2013-01-13 15:11:00,
2013-01-13 10:13:00,65.7,61.9,28.88,South,180,4.1,8.5,88,0.00,,,0.00,WSDL version 420,2013-01-13 15:13:00,
2013-01-13 10:19:00,66.0,62.6,28.88,WSW,243,3.1,6.3,89,0.00,,,0.00,WSDL version 420,2013-01-13 15:19:00,
2013-01-13 10:23:00,66.0,62.7,28.88,South,191,3.8,6.0,89,0.00,,,0.00,WSDL version 420,2013-01-13 15:23:00,
2013-01-13 10:25:00,66.0,62.7,28.88,South,185,3.3,6.0,88,0.00,,,0.00,WSDL version 420,2013-01-13 15:25:00,
2013-01-13 10:31:00,66.0,60.9,28.88,SE,135,3.8,6.3,82,0.00,,,0.00,WSDL version 420,2013-01-13 15:31:00,
2013-01-13 10:51:00,65.7,59.0,28.88,NW,315,1.3,2.7,79,0.00,,,0.00,WSDL version 420,2013-01-13 15:51:00,
2013-01-13 10:57:00,65.7,58.8,28.88,WSW,248,2.6,4.3,78,0.00,,,0.00,WSDL version 420,2013-01-13 15:57:00,
2013-01-13 10:59:00,65.7,58.7,28.88,South,180,1.1,4.3,78,0.00,,,0.00,WSDL version 420,2013-01-13 15:59:00,
2013-01-13 11:03:00,65.5,58.5,28.88,SW,225,3.1,7.4,78,0.00,,,0.00,WSDL version 420,2013-01-13 16:03:00,
2013-01-13 11:05:00,65.5,58.4,28.88,NW,315,1.6,7.4,78,0.00,,,0.00,WSDL version 420,2013-01-13 16:05:00,
2013-01-13 11:09:00,65.5,58.4,28.88,SW,225,1.6,7.4,78,0.00,,,0.00,WSDL version 420,2013-01-13 16:09:00,
2013-01-13 11:13:00,65.5,58.5,28.88,SW,218,0.4,2.7,78,0.00,,,0.00,WSDL version 420,2013-01-13 16:13:00,
2013-01-13 11:19:00,65.7,58.5,28.88,North,-999,-999.0,-999.0,78,0.00,,,0.00,WSDL version 420,2013-01-13 16:19:00,
2013-01-13 11:21:00,65.7,58.6,28.88,SSW,203,2.4,4.3,78,0.00,,,0.00,WSDL version 420,2013-01-13 16:21:00,
2013-01-13 11:25:00,66.2,59.1,28.88,SSW,203,2.2,3.8,78,0.00,,,0.00,WSDL version 420,2013-01-13 16:25:00,
2013-01-13 11:27:00,66.4,59.3,28.88,SSW,203,0.4,3.8,78,0.00,,,0.00,WSDL version 420,2013-01-13 16:27:00,
2013-01-13 11:29:00,66.5,59.4,28.88,SSW,203,3.1,3.8,77,0.00,,,0.00,WSDL version 420,2013-01-13 16:29:00,
2013-01-13 11:33:00,66.7,58.9,28.88,SSW,210,2.2,3.8,76,0.00,,,0.00,WSDL version 420,2013-01-13 16:33:00,
2013-01-13 11:35:00,66.7,58.9,28.88,SSW,198,2.1,6.5,76,0.00,,,0.00,WSDL version 420,2013-01-13 16:35:00,
2013-01-13 11:39:00,66.7,58.5,28.88,SSW,195,2.4,6.5,74,0.00,,,0.00,WSDL version 420,2013-01-13 16:39:00,
2013-01-13 11:41:00,66.8,58.4,28.88,South,191,4.0,6.5,75,0.00,,,0.00,WSDL version 420,2013-01-13 16:41:00,
2013-01-13 11:47:00,66.8,58.7,28.88,South,180,2.7,5.6,75,0.00,,,0.00,WSDL version 420,2013-01-13 16:47:00,
2013-01-13 11:49:00,66.7,58.5,28.88,SW,225,3.1,5.6,74,0.00,,,0.00,WSDL version 420,2013-01-13 16:49:00,
2013-01-13 11:55:00,66.6,58.3,28.88,SSE,158,4.9,6.5,75,0.00,,,0.00,WSDL version 420,2013-01-13 16:55:00,
2013-01-13 12:01:00,67.1,58.9,28.88,North,-999,-999.0,-999.0,75,0.00,,,0.00,WSDL version 420,2013-01-13 17:01:00,
2013-01-13 12:03:00,67.3,59.1,28.88,SSW,203,3.2,6.3,75,0.00,,,0.00,WSDL version 420,2013-01-13 17:03:00,
2013-01-13 12:07:00,67.3,58.9,28.88,SSW,203,2.9,6.3,74,0.00,,,0.00,WSDL version 420,2013-01-13 17:07:00,
2013-01-13 12:11:00,67.5,58.6,28.88,North,0,0.0,6.3,73,0.00,,,0.00,WSDL version 420,2013-01-13 17:11:00,
2013-01-13 12:13:00,67.5,58.5,28.88,North,360,2.4,5.6,73,0.00,,,0.00,WSDL version 420,2013-01-13 17:13:00,
2013-01-13 12:17:00,67.5,58.4,28.88,SSW,203,1.1,4.9,73,0.00,,,0.00,WSDL version 420,2013-01-13 17:17:00,
2013-01-13 12:19:00,67.6,58.6,28.88,South,188,2.8,7.6,73,0.00,,,0.00,WSDL version 420,2013-01-13 17:19:00,
2013-01-13 12:25:00,67.8,58.6,28.88,South,191,3.4,7.6,72,0.00,,,0.00,WSDL version 420,2013-01-13 17:25:00,
2013-01-13 12:29:00,67.6,58.3,28.88,South,169,2.7,5.4,72,0.00,,,0.00,WSDL version 420,2013-01-13 17:29:00,
2013-01-13 12:31:00,67.5,58.2,28.88,South,174,3.4,5.4,72,0.00,,,0.00,WSDL version 420,2013-01-13 17:31:00,
2013-01-13 12:33:00,67.5,58.1,28.88,South,180,4.3,5.4,72,0.00,,,0.00,WSDL version 420,2013-01-13 17:33:00,
2013-01-13 12:39:00,67.3,58.0,28.88,SW,214,2.0,4.7,72,0.00,,,0.00,WSDL version 420,2013-01-13 17:39:00,
2013-01-13 12:41:00,67.3,58.0,28.88,SSW,210,3.2,5.8,72,0.00,,,0.00,WSDL version 420,2013-01-13 17:41:00,
2013-01-13 12:45:00,67.2,57.9,28.88,SSW,194,1.3,5.8,72,0.00,,,0.00,WSDL version 420,2013-01-13 17:45:00,
2013-01-13 12:51:00,67.0,57.7,28.88,South,188,1.9,4.7,72,0.00,,,0.00,WSDL version 420,2013-01-13 17:51:00,
2013-01-13 12:53:00,67.0,57.7,28.88,SW,218,2.6,4.7,72,0.00,,,0.00,WSDL version 420,2013-01-13 17:53:00,
2013-01-13 12:57:00,66.8,57.5,28.85,SSW,203,0.9,3.6,72,0.00,,,0.00,WSDL version 420,2013-01-13 17:57:00,
2013-01-13 13:01:00,66.8,57.8,28.85,WNW,293,0.9,3.6,73,0.00,,,0.00,WSDL version 420,2013-01-13 18:01:00,
2013-01-13 13:07:00,66.8,57.9,28.85,SSW,203,1.1,2.7,73,0.00,,,0.00,WSDL version 420,2013-01-13 18:07:00,
2013-01-13 13:11:00,66.5,57.8,28.85,SSW,210,0.9,2.5,74,0.00,,,0.00,WSDL version 420,2013-01-13 18:11:00,
2013-01-13 13:17:00,66.2,57.9,28.85,WSW,248,1.1,2.5,75,0.00,,,0.00,WSDL version 420,2013-01-13 18:17:00,
2013-01-13 13:19:00,66.2,58.0,28.85,SSW,203,2.2,3.4,75,0.00,,,0.00,WSDL version 420,2013-01-13 18:19:00,
2013-01-13 13:25:00,66.1,58.1,28.85,South,180,0.0,3.4,76,0.00,,,0.00,WSDL version 420,2013-01-13 18:25:00,
2013-01-13 13:27:00,66.0,58.2,28.85,WSW,257,0.4,3.4,76,0.00,,,0.00,WSDL version 420,2013-01-13 18:27:00,
2013-01-13 13:29:00,66.1,58.3,28.85,SSW,210,0.0,1.1,76,0.00,,,0.00,WSDL version 420,2013-01-13 18:29:00,
2013-01-13 13:31:00,66.1,58.3,28.85,SSE,158,1.2,3.4,76,0.00,,,0.00,WSDL version 420,2013-01-13 18:31:00,
2013-01-13 13:35:00,66.0,58.2,28.85,SW,225,1.6,3.4,76,0.00,,,0.00,WSDL version 420,2013-01-13 18:35:00,
2013-01-13 13:39:00,65.8,58.1,28.85,South,191,2.2,4.3,76,0.00,,,0.00,WSDL version 420,2013-01-13 18:39:00,
2013-01-13 13:41:00,65.8,58.1,28.85,SW,214,1.7,4.3,76,0.00,,,0.00,WSDL version 420,2013-01-13 18:41:00,
2013-01-13 13:47:00,66.0,58.2,28.85,South,180,2.2,4.7,76,0.00,,,0.00,WSDL version 420,2013-01-13 18:47:00,
2013-01-13 13:49:00,66.0,58.3,28.85,South,180,0.4,4.7,77,0.00,,,0.00,WSDL version 420,2013-01-13 18:49:00,
2013-01-13 13:53:00,66.1,58.5,28.85,SW,218,1.0,3.4,76,0.00,,,0.00,WSDL version 420,2013-01-13 18:53:00,
2013-01-13 13:57:00,66.3,58.5,28.85,SW,225,0.0,2.9,76,0.00,,,0.00,WSDL version 420,2013-01-13 18:57:00,
2013-01-13 14:01:00,66.4,58.6,28.85,West,263,0.6,3.1,76,0.00,,,0.00,WSDL version 420,2013-01-13 19:01:00,
2013-01-13 14:07:00,66.5,58.6,28.85,NW,315,1.0,3.1,76,0.00,,,0.00,WSDL version 420,2013-01-13 19:07:00,
2013-01-13 14:13:00,66.6,58.4,28.85,West,259,1.6,2.0,75,0.00,,,0.00,WSDL version 420,2013-01-13 19:13:00,
2013-01-13 14:17:00,66.5,58.4,28.85,South,180,0.9,2.0,75,0.00,,,0.00,WSDL version 420,2013-01-13 19:17:00,
2013-01-13 14:19:00,66.5,58.3,28.85,SW,225,2.7,2.7,75,0.00,,,0.00,WSDL version 420,2013-01-13 19:19:00,
2013-01-13 14:21:00,66.3,58.2,28.85,West,270,1.3,1.6,75,0.00,,,0.00,WSDL version 420,2013-01-13 19:21:00,
2013-01-13 14:25:00,66.2,58.1,28.85,SSW,203,1.9,2.7,75,0.00,,,0.00,WSDL version 420,2013-01-13 19:25:00,
2013-01-13 14:29:00,66.2,58.1,28.85,SSW,203,1.4,2.7,75,0.00,,,0.00,WSDL version 420,2013-01-13 19:29:00,
2013-01-13 14:35:00,66.0,58.3,28.85,WSW,248,0.0,2.5,76,0.00,,,0.00,WSDL version 420,2013-01-13 19:35:00,
2013-01-13 14:37:00,66.0,58.3,28.85,North,-999,-999.0,-999.0,76,0.00,,,0.00,WSDL version 420,2013-01-13 19:37:00,
2013-01-13 14:39:00,66.0,58.3,28.85,SSW,203,0.0,1.3,77,0.00,,,0.00,WSDL version 420,2013-01-13 19:39:00,
2013-01-13 14:43:00,66.1,58.6,28.85,South,180,1.8,3.1,77,0.00,,,0.00,WSDL version 420,2013-01-13 19:43:00,
2013-01-13 14:45:00,66.2,58.8,28.85,SSW,203,2.7,3.1,77,0.00,,,0.00,WSDL version 420,2013-01-13 19:45:00,
2013-01-13 14:51:00,66.4,58.6,28.85,SSW,203,2.0,3.1,76,0.00,,,0.00,WSDL version 420,2013-01-13 19:51:00,
2013-01-13 14:55:00,66.5,58.7,28.85,SSW,203,1.5,2.9,76,0.00,,,0.00,WSDL version 420,2013-01-13 19:55:00,
2013-01-13 14:57:00,66.6,58.8,28.85,SW,225,1.2,2.9,76,0.00,,,0.00,WSDL version 420,2013-01-13 19:57:00,
2013-01-13 15:03:00,66.5,58.4,28.85,SSW,203,0.0,3.6,75,0.00,,,0.00,WSDL version 420,2013-01-13 20:03:00,
2013-01-13 15:05:00,66.5,58.3,28.85,NNW,338,0.0,3.6,75,0.00,,,0.00,WSDL version 420,2013-01-13 20:05:00,
2013-01-13 15:09:00,66.6,58.4,28.85,South,180,0.0,2.2,75,0.00,,,0.00,WSDL version 420,2013-01-13 20:09:00,
2013-01-13 15:15:00,66.6,58.2,28.85,SSW,203,0.9,2.0,74,0.00,,,0.00,WSDL version 420,2013-01-13 20:15:00,
2013-01-13 15:21:00,66.6,57.8,28.85,SW,225,1.6,2.5,73,0.00,,,0.00,WSDL version 420,2013-01-13 20:21:00,
2013-01-13 15:25:00,66.6,57.6,28.85,SW,214,2.2,2.5,73,0.00,,,0.00,WSDL version 420,2013-01-13 20:25:00,
2013-01-13 15:29:00,66.6,57.6,28.85,SW,225,1.9,3.8,73,0.00,,,0.00,WSDL version 420,2013-01-13 20:29:00,
2013-01-13 15:31:00,66.6,57.6,28.85,South,191,1.6,4.7,73,0.00,,,0.00,WSDL version 420,2013-01-13 20:31:00,
2013-01-13 15:35:00,66.7,57.6,28.85,North,0,0.0,4.7,72,0.00,,,0.00,WSDL version 420,2013-01-13 20:35:00,
2013-01-13 15:37:00,66.8,57.5,28.85,WSW,239,0.0,4.7,72,0.00,,,0.00,WSDL version 420,2013-01-13 20:37:00,
2013-01-13 15:41:00,66.9,57.6,28.88,WSW,248,1.6,4.7,72,0.00,,,0.00,WSDL version 420,2013-01-13 20:41:00,
2013-01-13 15:43:00,66.9,57.6,28.88,SSW,195,1.7,4.7,72,0.00,,,0.00,WSDL version 420,2013-01-13 20:43:00,
2013-01-13 15:49:00,66.7,57.4,28.88,SW,225,2.2,3.6,72,0.00,,,0.00,WSDL version 420,2013-01-13 20:49:00,
2013-01-13 15:51:00,66.7,57.4,28.88,SSW,203,3.1,3.6,72,0.00,,,0.00,WSDL version 420,2013-01-13 20:51:00,
2013-01-13 15:57:00,66.5,57.2,28.85,South,180,2.9,2.9,72,0.00,,,0.00,WSDL version 420,2013-01-13 20:57:00,
2013-01-13 15:59:00,66.5,57.2,28.85,SW,225,0.9,2.5,72,0.00,,,0.00,WSDL version 420,2013-01-13 20:59:00,
2013-01-13 16:03:00,66.4,57.1,28.85,West,270,1.1,1.6,72,0.00,,,0.00,WSDL version 420,2013-01-13 21:03:00,
2013-01-13 16:09:00,66.3,57.0,28.85,SW,225,0.0,1.6,72,0.00,,,0.00,WSDL version 420,2013-01-13 21:09:00,
2013-01-13 16:11:00,66.2,56.9,28.85,South,180,0.0,1.6,72,0.00,,,0.00,WSDL version 420,2013-01-13 21:11:00,
2013-01-13 16:17:00,66.2,56.9,28.85,SW,236,1.5,2.2,72,0.00,,,0.00,WSDL version 420,2013-01-13 21:17:00,
2013-01-13 16:23:00,66.1,57.0,28.85,SSW,203,1.0,2.9,72,0.00,,,0.00,WSDL version 420,2013-01-13 21:23:00,
2013-01-13 16:27:00,66.0,56.9,28.88,SW,225,1.7,2.9,72,0.00,,,0.00,WSDL version 420,2013-01-13 21:27:00,
2013-01-13 16:29:00,66.0,56.8,28.88,SW,233,1.9,3.4,72,0.00,,,0.00,WSDL version 420,2013-01-13 21:29:00,
2013-01-13 16:33:00,65.9,56.9,28.88,SW,214,0.4,3.4,73,0.00,,,0.00,WSDL version 420,2013-01-13 21:33:00,
2013-01-13 16:35:00,65.9,57.0,28.88,South,185,0.5,3.4,73,0.00,,,0.00,WSDL version 420,2013-01-13 21:35:00,
2013-01-13 16:37:00,65.8,57.0,28.88,WSW,242,1.5,3.4,73,0.00,,,0.00,WSDL version 420,2013-01-13 21:37:00,
2013-01-13 16:43:00,65.8,57.0,28.88,SW,214,0.8,3.4,73,0.00,,,0.00,WSDL version 420,2013-01-13 21:43:00,
2013-01-13 16:49:00,65.8,57.0,28.88,SW,219,1.0,2.5,73,0.00,,,0.00,WSDL version 420,2013-01-13 21:49:00,
2013-01-13 16:51:00,65.8,56.9,28.88,SW,225,0.0,2.2,73,0.00,,,0.00,WSDL version 420,2013-01-13 21:51:00,
2013-01-13 16:57:00,65.6,56.7,28.88,SSW,203,1.3,2.2,73,0.00,,,0.00,WSDL version 420,2013-01-13 21:57:00,
2013-01-13 17:01:00,65.5,56.7,28.88,SW,219,1.7,1.7,74,0.00,,,0.00,WSDL version 420,2013-01-13 22:01:00,
2013-01-13 17:07:00,65.2,56.7,28.88,SW,236,1.0,3.8,74,0.00,,,0.00,WSDL version 420,2013-01-13 22:07:00,
2013-01-13 17:13:00,65.1,56.6,28.88,North,-999,-999.0,-999.0,74,0.00,,,0.00,WSDL version 420,2013-01-13 22:13:00,
2013-01-13 17:15:00,65.1,56.6,28.88,SSW,210,1.0,2.9,74,0.00,,,0.00,WSDL version 420,2013-01-13 22:15:00,
2013-01-13 17:17:00,65.1,56.6,28.88,SW,221,1.1,2.9,74,0.00,,,0.00,WSDL version 420,2013-01-13 22:17:00,
2013-01-13 17:19:00,65.1,56.6,28.88,SSW,203,0.0,2.9,74,0.00,,,0.00,WSDL version 420,2013-01-13 22:19:00,
2013-01-13 17:25:00,64.9,56.8,28.88,SW,225,0.7,2.9,75,0.00,,,0.00,WSDL version 420,2013-01-13 22:25:00,
2013-01-13 17:27:00,64.9,56.8,28.88,SW,218,1.0,2.9,75,0.00,,,0.00,WSDL version 420,2013-01-13 22:27:00,
2013-01-13 17:31:00,64.9,56.7,28.88,SW,218,0.7,2.9,75,0.00,,,0.00,WSDL version 420,2013-01-13 22:31:00,
2013-01-13 17:33:00,64.8,56.7,28.88,SSW,203,0.0,1.6,75,0.00,,,0.00,WSDL version 420,2013-01-13 22:33:00,
2013-01-13 17:37:00,64.8,56.7,28.88,SW,214,0.8,1.6,75,0.00,,,0.00,WSDL version 420,2013-01-13 22:37:00,
2013-01-13 17:39:00,64.7,56.6,28.88,SSW,207,0.9,3.1,75,0.00,,,0.00,WSDL version 420,2013-01-13 22:39:00,
2013-01-13 17:41:00,64.6,56.5,28.88,SW,214,1.1,3.1,75,0.00,,,0.00,WSDL version 420,2013-01-13 22:41:00,
2013-01-13 17:45:00,64.5,56.4,28.88,SW,225,0.6,3.1,75,0.00,,,0.00,WSDL version 420,2013-01-13 22:45:00,
2013-01-13 17:51:00,64.3,56.4,28.88,SSW,203,0.0,2.2,76,0.00,,,0.00,WSDL version 420,2013-01-13 22:51:00,
2013-01-13 17:55:00,64.2,56.5,28.85,WSW,242,0.6,2.9,76,0.00,,,0.00,WSDL version 420,2013-01-13 22:55:00,
2013-01-13 17:59:00,64.2,56.5,28.85,WSW,248,0.0,2.9,76,0.00,,,0.00,WSDL version 420,2013-01-13 22:59:00,
2013-01-13 18:01:00,64.1,56.4,28.85,WSW,248,0.0,2.9,76,0.00,,,0.00,WSDL version 420,2013-01-13 23:01:00,
2013-01-13 18:07:00,64.0,56.6,28.85,NW,315,0.0,0.0,77,0.00,,,0.00,WSDL version 420,2013-01-13 23:07:00,
2013-01-13 18:09:00,64.0,56.6,28.85,SW,229,0.0,0.0,77,0.00,,,0.00,WSDL version 420,2013-01-13 23:09:00,
2013-01-13 18:15:00,63.9,56.5,28.85,SW,225,0.0,1.1,77,0.00,,,0.00,WSDL version 420,2013-01-13 23:15:00,
2013-01-13 18:17:00,63.9,56.5,28.85,SW,219,0.7,1.1,77,0.00,,,0.00,WSDL version 420,2013-01-13 23:17:00,
2013-01-13 18:21:00,64.0,56.7,28.85,WSW,248,0.6,2.0,77,0.00,,,0.00,WSDL version 420,2013-01-13 23:21:00,
2013-01-13 18:23:00,64.0,56.7,28.85,SSW,203,0.9,2.0,77,0.00,,,0.00,WSDL version 420,2013-01-13 23:23:00,
2013-01-13 18:27:00,64.0,56.9,28.85,SSW,203,0.0,2.0,78,0.00,,,0.00,WSDL version 420,2013-01-13 23:27:00,
2013-01-13 18:29:00,64.0,57.0,28.85,SSW,203,0.0,0.0,78,0.00,,,0.00,WSDL version 420,2013-01-13 23:29:00,
2013-01-13 18:31:00,64.0,56.9,28.85,SW,225,0.0,0.0,77,0.00,,,0.00,WSDL version 420,2013-01-13 23:31:00,
2013-01-13 18:37:00,63.9,56.6,28.85,South,180,0.0,0.0,77,0.00,,,0.00,WSDL version 420,2013-01-13 23:37:00,
2013-01-13 18:43:00,63.8,56.4,28.85,East,90,0.0,0.0,77,0.00,,,0.00,WSDL version 420,2013-01-13 23:43:00,
2013-01-13 18:45:00,63.6,56.3,28.85,ENE,60,0.0,0.0,77,0.00,,,0.00,WSDL version 420,2013-01-13 23:45:00,
2013-01-13 18:49:00,63.4,56.1,28.85,South,180,0.0,0.0,77,0.00,,,0.00,WSDL version 420,2013-01-13 23:49:00,
2013-01-13 18:51:00,63.3,56.1,28.85,SSE,148,0.0,0.0,78,0.00,,,0.00,WSDL version 420,2013-01-13 23:51:00,
2013-01-13 18:55:00,63.1,56.1,28.85,South,180,0.0,0.0,78,0.00,,,0.00,WSDL version 420,2013-01-13 23:55:00,
2013-01-13 18:57:00,63.1,56.1,28.85,North,360,0.9,2.0,78,0.00,,,0.00,WSDL version 420,2013-01-13 23:57:00,
2013-01-13 19:01:00,62.9,55.9,28.85,South,180,0.0,2.0,78,0.00,,,0.00,WSDL version 420,2013-01-14 00:01:00,
2013-01-13 19:03:00,62.8,55.8,28.85,SSE,158,0.0,2.0,78,0.00,,,0.00,WSDL version 420,2013-01-14 00:03:00,
2013-01-13 19:05:00,62.7,55.7,28.85,NNE,23,0.0,2.0,78,0.00,,,0.00,WSDL version 420,2013-01-14 00:05:00,
2013-01-13 19:09:00,62.6,55.7,28.85,NNW,341,0.0,0.0,78,0.00,,,0.00,WSDL version 420,2013-01-14 00:09:00,
2013-01-13 19:15:00,62.3,55.8,28.85,NE,45,0.0,0.0,79,0.00,,,0.00,WSDL version 420,2013-01-14 00:15:00,
2013-01-13 19:21:00,62.0,55.4,28.85,West,270,0.0,0.0,79,0.00,,,0.00,WSDL version 420,2013-01-14 00:21:00,
2013-01-13 19:23:00,61.9,55.5,28.85,West,270,0.0,0.0,80,0.00,,,0.00,WSDL version 420,2013-01-14 00:23:00,
2013-01-13 19:27:00,61.8,55.6,28.85,West,270,0.0,0.0,80,0.00,,,0.00,WSDL version 420,2013-01-14 00:27:00,
2013-01-13 19:29:00,61.8,55.5,28.85,SW,225,0.0,0.0,80,0.00,,,0.00,WSDL version 420,2013-01-14 00:29:00,
2013-01-13 19:35:00,61.7,55.4,28.85,WSW,248,0.0,0.0,80,0.00,,,0.00,WSDL version 420,2013-01-14 00:35:00,
2013-01-13 19:39:00,61.5,55.3,28.85,WSW,248,0.0,0.0,80,0.00,,,0.00,WSDL version 420,2013-01-14 00:39:00,
2013-01-13 19:41:00,61.5,55.5,28.85,WSW,253,0.0,0.0,81,0.00,,,0.00,WSDL version 420,2013-01-14 00:41:00,
2013-01-13 19:45:00,61.3,55.5,28.85,SE,146,0.0,0.0,81,0.00,,,0.00,WSDL version 420,2013-01-14 00:45:00,
2013-01-13 19:47:00,61.3,55.5,28.85,ENE,68,0.0,0.0,81,0.00,,,0.00,WSDL version 420,2013-01-14 00:47:00,
2013-01-13 19:49:00,61.3,55.5,28.85,NE,45,0.0,0.0,81,0.00,,,0.00,WSDL version 420,2013-01-14 00:49:00,
2013-01-13 19:51:00,61.3,55.5,28.85,ESE,115,0.0,0.0,81,0.00,,,0.00,WSDL version 420,2013-01-14 00:51:00,
2013-01-13 19:55:00,61.3,55.5,28.85,ESE,113,0.0,0.0,81,0.00,,,0.00,WSDL version 420,2013-01-14 00:55:00,
2013-01-13 19:59:00,61.3,55.5,28.85,NE,54,0.0,0.0,81,0.00,,,0.00,WSDL version 420,2013-01-14 00:59:00,
2013-01-13 20:05:00,61.3,55.5,28.85,South,180,0.0,0.0,81,0.00,,,0.00,WSDL version 420,2013-01-14 01:05:00,
2013-01-13 20:07:00,61.3,55.4,28.85,South,180,0.0,0.0,81,0.00,,,0.00,WSDL version 420,2013-01-14 01:07:00,
2013-01-13 20:11:00,61.0,55.2,28.85,South,180,0.0,0.0,81,0.00,,,0.00,WSDL version 420,2013-01-14 01:11:00,
2013-01-13 20:13:00,61.0,55.2,28.85,SW,231,0.0,0.0,81,0.00,,,0.00,WSDL version 420,2013-01-14 01:13:00,
2013-01-13 20:15:00,60.9,55.1,28.85,NNW,333,0.0,0.0,81,0.00,,,0.00,WSDL version 420,2013-01-14 01:15:00,
2013-01-13 20:17:00,60.9,55.0,28.85,WNW,293,0.0,0.0,81,0.00,,,0.00,WSDL version 420,2013-01-14 01:17:00,
2013-01-13 20:19:00,60.8,55.0,28.85,NNW,338,0.0,0.0,81,0.00,,,0.00,WSDL version 420,2013-01-14 01:19:00,
2013-01-13 20:21:00,60.8,55.0,28.85,North,349,0.0,0.0,81,0.00,,,0.00,WSDL version 420,2013-01-14 01:21:00,
2013-01-13 20:27:00,60.7,55.2,28.85,North,360,0.0,0.0,82,0.00,,,0.00,WSDL version 420,2013-01-14 01:27:00,
2013-01-13 20:29:00,60.7,55.2,28.85,North,360,0.0,0.0,82,0.00,,,0.00,WSDL version 420,2013-01-14 01:29:00,
2013-01-13 20:33:00,60.8,55.3,28.85,North,360,0.0,0.0,82,0.00,,,0.00,WSDL version 420,2013-01-14 01:33:00,
2013-01-13 20:39:00,60.8,55.4,28.85,North,360,0.0,0.0,82,0.00,,,0.00,WSDL version 420,2013-01-14 01:39:00,
2013-01-13 20:45:00,60.8,55.4,28.85,South,191,0.0,0.0,82,0.00,,,0.00,WSDL version 420,2013-01-14 01:45:00,
2013-01-13 20:49:00,60.8,55.4,28.85,South,180,0.0,0.0,82,0.00,,,0.00,WSDL version 420,2013-01-14 01:49:00,
2013-01-13 20:51:00,60.8,55.4,28.85,South,180,0.0,0.0,82,0.00,,,0.00,WSDL version 420,2013-01-14 01:51:00,
2013-01-13 20:53:00,60.8,55.4,28.85,South,180,0.0,0.0,82,0.00,,,0.00,WSDL version 420,2013-01-14 01:53:00,
2013-01-13 20:55:00,60.8,55.4,28.85,South,180,0.0,0.0,82,0.00,,,0.00,WSDL version 420,2013-01-14 01:55:00,
2013-01-13 20:57:00,60.8,55.4,28.85,ESE,104,0.0,0.0,82,0.00,,,0.00,WSDL version 420,2013-01-14 01:57:00,
2013-01-13 21:01:00,60.8,55.4,28.85,NNE,23,0.0,0.0,82,0.00,,,0.00,WSDL version 420,2013-01-14 02:01:00,
2013-01-13 21:03:00,60.8,55.4,28.85,NNE,23,0.0,0.0,82,0.00,,,0.00,WSDL version 420,2013-01-14 02:03:00,
2013-01-13 21:05:00,60.8,55.4,28.85,NNW,332,0.0,0.0,82,0.00,,,0.00,WSDL version 420,2013-01-14 02:05:00,
2013-01-13 21:09:00,60.8,55.4,28.85,NW,315,0.0,0.0,82,0.00,,,0.00,WSDL version 420,2013-01-14 02:09:00,
2013-01-13 21:11:00,60.8,55.4,28.85,NW,315,0.0,0.0,82,0.00,,,0.00,WSDL version 420,2013-01-14 02:11:00,
2013-01-13 21:15:00,60.8,55.4,28.85,WNW,293,0.0,0.0,82,0.00,,,0.00,WSDL version 420,2013-01-14 02:15:00,
2013-01-13 21:17:00,60.8,55.4,28.85,WNW,293,0.0,0.0,82,0.00,,,0.00,WSDL version 420,2013-01-14 02:17:00,
2013-01-13 21:19:00,60.8,55.4,28.85,WNW,293,0.0,0.0,82,0.00,,,0.00,WSDL version 420,2013-01-14 02:19:00,
2013-01-13 21:21:00,60.8,55.4,28.85,WNW,293,0.0,0.0,82,0.00,,,0.00,WSDL version 420,2013-01-14 02:21:00,
2013-01-13 21:23:00,60.8,55.4,28.85,WNW,293,0.0,0.0,82,0.00,,,0.00,WSDL version 420,2013-01-14 02:23:00,
2013-01-13 21:25:00,60.9,55.5,28.85,WNW,293,0.0,0.0,82,0.00,,,0.00,WSDL version 420,2013-01-14 02:25:00,
2013-01-13 21:29:00,61.0,55.5,28.85,West,263,0.0,0.0,82,0.00,,,0.00,WSDL version 420,2013-01-14 02:29:00,
2013-01-13 21:31:00,61.0,55.5,28.85,NW,319,0.0,0.0,82,0.00,,,0.00,WSDL version 420,2013-01-14 02:31:00,
2013-01-13 21:33:00,61.0,55.5,28.85,North,360,0.0,0.0,82,0.00,,,0.00,WSDL version 420,2013-01-14 02:33:00,
2013-01-13 21:35:00,61.0,55.6,28.85,North,360,0.0,0.0,82,0.00,,,0.00,WSDL version 420,2013-01-14 02:35:00,
2013-01-13 21:39:00,61.0,55.5,28.85,North,360,0.0,0.0,82,0.00,,,0.00,WSDL version 420,2013-01-14 02:39:00,
2013-01-13 21:43:00,61.0,55.6,28.85,North,360,0.0,0.0,82,0.00,,,0.00,WSDL version 420,2013-01-14 02:43:00,
2013-01-13 21:45:00,61.1,55.6,28.85,North,360,0.0,0.0,82,0.00,,,0.00,WSDL version 420,2013-01-14 02:45:00,
2013-01-13 21:47:00,61.2,55.7,28.85,North,360,0.0,0.0,82,0.00,,,0.00,WSDL version 420,2013-01-14 02:47:00,
2013-01-13 21:49:00,61.2,55.7,28.85,North,8,0.0,0.0,82,0.00,,,0.00,WSDL version 420,2013-01-14 02:49:00,
2013-01-13 21:51:00,61.2,55.7,28.85,SSE,153,0.0,0.0,82,0.00,,,0.00,WSDL version 420,2013-01-14 02:51:00,
2013-01-13 21:55:00,61.3,55.8,28.85,NE,45,0.0,0.0,82,0.00,,,0.00,WSDL version 420,2013-01-14 02:55:00,
2013-01-13 21:57:00,61.3,55.8,28.85,NE,45,0.0,0.0,82,0.00,,,0.00,WSDL version 420,2013-01-14 02:57:00,
2013-01-13 22:01:00,61.2,55.7,28.85,NE,45,0.0,0.0,82,0.00,,,0.00,WSDL version 420,2013-01-14 03:01:00,
2013-01-13 22:03:00,61.2,55.7,28.85,NE,45,0.0,0.0,82,0.00,,,0.00,WSDL version 420,2013-01-14 03:03:00,
2013-01-13 22:07:00,61.2,55.7,28.85,NE,45,0.0,0.0,82,0.00,,,0.00,WSDL version 420,2013-01-14 03:07:00,
2013-01-13 22:13:00,61.2,55.7,28.85,NE,45,0.0,0.0,82,0.00,,,0.00,WSDL version 420,2013-01-14 03:13:00,
2013-01-13 22:15:00,61.2,55.7,28.85,ESE,113,0.0,0.0,82,0.00,,,0.00,WSDL version 420,2013-01-14 03:15:00,
2013-01-13 22:17:00,61.2,55.7,28.85,South,180,0.0,0.0,82,0.00,,,0.00,WSDL version 420,2013-01-14 03:17:00,
2013-01-13 22:21:00,61.3,55.8,28.85,NNW,338,0.0,0.0,82,0.00,,,0.00,WSDL version 420,2013-01-14 03:21:00,
2013-01-13 22:23:00,61.3,55.9,28.85,South,180,0.0,0.0,82,0.00,,,0.00,WSDL version 420,2013-01-14 03:23:00,
2013-01-13 22:25:00,61.3,55.9,28.85,ESE,122,0.0,0.0,82,0.00,,,0.00,WSDL version 420,2013-01-14 03:25:00,
2013-01-13 22:29:00,61.3,55.9,28.85,NE,45,0.0,0.0,82,0.00,,,0.00,WSDL version 420,2013-01-14 03:29:00,
2013-01-13 22:31:00,61.3,55.9,28.85,SE,135,0.0,0.0,82,0.00,,,0.00,WSDL version 420,2013-01-14 03:31:00,
2013-01-13 22:37:00,61.3,55.9,28.85,ESE,113,0.0,0.0,82,0.00,,,0.00,WSDL version 420,2013-01-14 03:37:00,
2013-01-13 22:41:00,61.3,55.9,28.85,NW,315,0.0,0.0,82,0.00,,,0.00,WSDL version 420,2013-01-14 03:41:00,
2013-01-13 22:43:00,61.3,55.9,28.85,NNW,338,0.0,0.0,82,0.00,,,0.00,WSDL version 420,2013-01-14 03:43:00,
2013-01-13 22:47:00,61.3,55.9,28.85,South,180,0.0,0.0,82,0.00,,,0.00,WSDL version 420,2013-01-14 03:47:00,
2013-01-13 22:49:00,61.4,56.0,28.85,South,180,0.0,0.0,82,0.00,,,0.00,WSDL version 420,2013-01-14 03:49:00,
2013-01-13 22:51:00,61.4,56.0,28.85,South,180,0.0,0.0,82,0.00,,,0.00,WSDL version 420,2013-01-14 03:51:00,
2013-01-13 22:55:00,61.3,55.9,28.85,South,174,0.0,0.0,82,0.00,,,0.00,WSDL version 420,2013-01-14 03:55:00,
2013-01-13 23:01:00,61.5,56.0,28.85,North,360,0.0,0.0,82,0.00,,,0.00,WSDL version 420,2013-01-14 04:01:00,
2013-01-13 23:07:00,61.5,56.1,28.85,SSE,158,0.0,0.0,82,0.00,,,0.00,WSDL version 420,2013-01-14 04:07:00,
2013-01-13 23:09:00,61.5,56.1,28.85,SSE,158,0.0,0.0,82,0.00,,,0.00,WSDL version 420,2013-01-14 04:09:00,
2013-01-13 23:15:00,61.5,56.0,28.85,South,180,0.0,0.0,82,0.00,,,0.00,WSDL version 420,2013-01-14 04:15:00,
2013-01-13 23:19:00,61.3,55.9,28.85,NE,45,0.0,0.0,82,0.00,,,0.00,WSDL version 420,2013-01-14 04:19:00,
2013-01-13 23:21:00,61.3,55.9,28.85,NE,45,0.0,0.0,82,0.00,,,0.00,WSDL version 420,2013-01-14 04:21:00,
2013-01-13 23:27:00,61.3,55.9,28.85,NE,45,0.0,0.0,82,0.00,,,0.00,WSDL version 420,2013-01-14 04:27:00,
2013-01-13 23:31:00,61.3,55.9,28.85,SSW,203,0.0,0.0,82,0.00,,,0.00,WSDL version 420,2013-01-14 04:31:00,
2013-01-13 23:35:00,61.3,55.9,28.85,SSE,158,0.0,0.0,82,0.00,,,0.00,WSDL version 420,2013-01-14 04:35:00,
2013-01-13 23:37:00,61.4,55.9,28.85,South,173,0.0,0.0,82,0.00,,,0.00,WSDL version 420,2013-01-14 04:37:00,
2013-01-13 23:39:00,61.4,56.0,28.85,South,180,0.0,0.0,82,0.00,,,0.00,WSDL version 420,2013-01-14 04:39:00,
2013-01-13 23:43:00,61.5,56.1,28.85,East,90,0.0,0.0,82,0.00,,,0.00,WSDL version 420,2013-01-14 04:43:00,
2013-01-13 23:45:00,61.5,56.1,28.85,SSE,158,0.0,0.0,82,0.00,,,0.00,WSDL version 420,2013-01-14 04:45:00,
2013-01-13 23:47:00,61.5,56.1,28.85,West,260,0.0,0.0,82,0.00,,,0.00,WSDL version 420,2013-01-14 04:47:00,
2013-01-13 23:51:00,61.4,55.9,28.85,West,270,0.0,0.0,82,0.00,,,0.00,WSDL version 420,2013-01-14 04:51:00,
2013-01-13 23:53:00,61.3,55.9,28.85,West,270,0.0,0.0,82,0.00,,,0.00,WSDL version 420,2013-01-14 04:53:00,
2013-01-13 23:55:00,61.4,55.9,28.85,West,270,0.0,0.0,82,0.00,,,0.00,WSDL version 420,2013-01-14 04:55:00,
2013-01-13 23:57:00,61.5,56.0,28.85,West,270,0.0,0.0,82,0.00,,,0.00,WSDL version 420,2013-01-14 04:57:00,